Location: Degersen
(52.2871°N, 9.5716°E)
Time: 23:32:26
(UTC+00:00)

SeaSat 1 - Pass Details

Date: 20 January 2026
Orbit: 737 x 739 km, 108.0° (Epoch: 9 February)

Event Time Altitude Azimuth Distance (km) Brightness Sun altitude
Rises 05:35:23 0° 36° (NE) 3,186 6.0 -15.4°
Reaches altitude 10° 05:37:50 10° 45° (NE) 2,259 5.4 -15.0°
Maximum altitude 05:42:20 36° 112° (ESE) 1,170 4.2 -14.3°
Drops below altitude 10° 05:46:49 10° 178° (S) 2,244 5.1 -13.7°
Sets 05:49:14 0° 187° (S) 3,163 5.8 -13.3°
